sat.trackr.live / text

‹ back to catalog

STARLINK-1017

NORAD 44723 · 2019-074L

PAYLOAD ACTIVE UNKNOWN

§ Identity

Operator
Country
US
Launch date
2019-11-11
Launch site
AFETR
Launch vehicle
Mass (kg)
RCS (m²)

Purposes: comms

External: N2YO · Heavens-Above · Gunter

§ Orbital elements

Epoch: 2026-09-19T23:03:52.674048Z

Period
93.54 min
Inclination
53.0449°
Eccentricity
0.0004125
Mean motion
15.39393943 rev/d
Perigee alt
445.1 km
Apogee alt
450.7 km
Semi-major
6,826.0 km
B*
8.5096e-4
RAAN
344.3486°
Arg perigee
354.0990°
Mean anomaly
5.9963°
Rev number
37,874

§ Raw data

STARLINK-10171 44723U 19074L   26262.96102632  .00033545  00000+0  85096-3 0  99982 44723  53.0449 344.3486 0004125 354.0990   5.9963 15.39393943378741

JSON: /api/v1/satellites/44723 · /tle

For live sub-satellite position, see the globe view (requires WebGL).

§ Visibility from observer

Set your observer location to see the next 7 days of passes ≥ 10°. The values pass through the URL so the page stays shareable.

No JS? Fill the form by hand. The geolocation button needs JavaScript.